Location: Bord�res
(43.2000°N, 0.2167°W)
Time: 13:50:49
(UTC+00:00)

Meteor 1-11 Rocket - Pass Details

Date: 03 March 2021
Orbit: 831 x 916 km, 81.2° (Epoch: 13 April)

Event Time Altitude Azimuth Distance (km) Brightness Sun altitude
Rises 19:22:38 0° 171° (S) 3,471 6.7 -17.2°
Reaches altitude 10° 19:25:10 10° 165° (SSE) 2,523 6.0 -17.6°
Maximum altitude 19:30:37 47° 93° (E) 1,133 3.9 -18.6°
Drops below altitude 10° 19:35:59 10° 22° (NNE) 2,486 6.0 -19.6°
Sets 19:38:28 0° 16° (NNE) 3,415 6.8 -20.0°
